Location: *
(32.9793°S, 63.4294°E)
Time: 02:43:49
(UTC+00:00)

Daily predictions for brighter satellites

Satellite Brightness Start Highest point End
(mag) Time Altitude Azimuth Time Altitude Azimuth Time Altitude Azimuth
CZ-2C R/B 4.5 00:01:36 10° NNE 00:04:11 30° NNE 00:04:11 30° NNE
USA 267 3.4 00:03:40 10° SE 00:10:16 70° NE 00:12:37 42° NNW
Cosmos 2151 4.2 00:17:36 38° ESE 00:17:48 39° E 00:21:46 10° NNE
Cosmos 1821 Rocket 3.8 00:13:52 10° N 00:20:10 87° W 00:26:29 10° S
Cosmos 1727 Rocket 3.8 00:22:46 51° S 00:24:29 85° W 00:30:44 10° N
ATLAS 5 CENTAUR R/B 4.3 00:21:07 23° NW 00:28:43 51° NNE 01:19:40 10° E
Meteor 1-27 4.0 00:24:47 10° N 00:30:22 80° W 00:36:01 10° S
H-2A R/B 4.1 00:26:33 10° NE 00:30:51 26° ESE 00:35:06 10° SSE
CZ-2C R/B 4.3 00:27:54 10° SSE 00:32:38 33° E 00:37:15 10° NNE
CZ-4C R/B 4.4 00:33:39 36° NE 00:33:39 36° NE 00:36:15 10° N
Orbus 21S 4.1 00:36:47 19° NNE 00:36:47 19° NNE 00:39:54 10° ENE
NOAA 12 4.5 00:34:37 10° NNE 00:39:53 64° ESE 00:45:14 10° S
ADEOS 4.2 00:35:01 10° NNE 00:40:05 54° ESE 00:45:14 10° S
ATLAS CENTAUR R/B 3.9 00:40:38 38° WNW 00:41:45 40° NW 00:53:28 10° NNE
Meteor 2-3 Rocket 3.7 00:42:57 40° SSW 00:45:03 67° W 00:50:48 10° N
ATLAS 5 CENTAUR R/B 2.4 00:42:58 31° S 00:45:05 51° SE 00:49:19 10° NE
Cosmos 1190 Rocket 3.9 00:41:18 10° NNW 00:46:37 76° WSW 00:51:58 10° SSE
OAO 3 Rocket 3.1 00:52:56 57° WNW 00:53:55 90° NNE 00:58:42 10° ESE
Cosmos 1812 Rocket 3.6 00:51:14 10° NNW 00:57:46 29° SSW 01:00:07 10° S
Cosmos 1076 Rocket 4.3 00:57:00 34° NW 00:57:00 34° NW 00:59:44 10° NNW
Cosmos 1934 Rocket 3.9 00:50:20 10° N 00:56:23 89° W 01:02:35 10° S
SJ-7 4.3 00:52:23 10° N 00:56:36 75° WNW 00:57:58 42° SSW
Cosmos-2242 2.8 00:53:58 10° NNW 00:58:13 71° W 01:02:31 10° S
Milstar 3 Cent rocket 3.3 00:55:54 30° WNW 00:59:20 65° N 01:11:18 10° E
Cosmos 1606 2.9 00:57:20 10° N 01:01:08 70° E 01:05:01 10° SSE
Meteor 1-31 Rocket 4.5 00:58:03 10° NNW 00:59:33 21° NNW 00:59:33 21° NNW
Cosmos 676 Rocket 3.9 01:00:31 10° NNW 01:05:49 87° WSW 01:11:10 10° SSE
GEOS 3 Rocket 4.3 01:01:12 10° N 01:06:02 37° WNW 01:07:11 33° W
MINOTAUR 4 R/B 4.0 01:09:18 53° WSW 01:09:19 53° WSW 01:12:45 10° NNW
Delta 2 Rocket 4.3 01:10:20 32° W 01:12:49 59° NNW 01:18:19 10° NE
X-37B 1.6 01:15:58 29° NNW 01:15:58 29° NNW 01:18:18 10° NNE
Cosmos 2123 Rocket 3.9 01:11:41 10° S 01:17:59 83° W 01:24:11 10° N
USA 281 3.4 01:15:41 10° N 01:22:02 51° WNW 01:28:30 10° SSW
SMAP 3.0 01:20:44 10° NNE 01:25:24 86° WNW 01:30:09 10° SSW
SAR-Lupe-3 4.5 01:27:33 10° NNE 01:31:07 88° WNW 01:34:47 10° SSW
USA 276 3.2 01:31:11 24° WNW 01:31:44 26° NW 01:34:16 10° NNE
Cosmos 1939 Rocket 3.7 01:28:20 10° NNW 01:31:53 30° W 01:33:50 20° SW
ASTRO E2 2.8 01:30:02 21° WNW 01:32:31 70° N 01:36:29 10° E
Cosmos 2369 Rocket 3.6 01:39:37 16° WSW 01:39:46 16° WSW 01:43:08 10° SSW
ARGOS 3.6 01:35:10 10° NNE 01:40:33 65° ESE 01:46:00 10° S
Cosmos 1766 Rocket 3.8 01:36:16 10° S 01:40:46 74° E 01:45:12 10° N
Okean 3 Rocket 4.2 01:37:05 10° S 01:41:32 59° E 01:45:53 10° NNE
Meteor PRIRODA 4.3 01:40:00 10° NNW 01:43:17 33° W 01:46:38 10° SSW
Cosmos 1862 3.7 01:41:09 10° SSW 01:45:02 42° W 01:48:52 10° NNW
Spot 1 4.4 01:40:52 10° S 01:45:43 64° WSW 01:50:44 10° NNW
Cosmos 1763 Rocket 3.9 01:40:57 10° S 01:46:06 66° ESE 01:51:08 10° NNE
SL-08 R/B 4.5 01:43:16 10° SSW 01:46:43 20° WSW 01:50:08 10° WNW
Cosmos 2221 2.5 01:47:54 10° N 01:52:12 79° W 01:56:38 10° S
SL-08 RB Rocket 4.4 01:47:57 10° NNE 01:52:31 59° ESE 01:57:05 10° S
USA 267 4.0 01:47:11 10° SSE 01:52:51 32° SW 01:58:31 10° W
CZ-2D R/B 3.6 01:49:58 10° N 01:53:37 44° W 01:57:18 10° SSW
CENTAUR R/B 3.9 01:50:37 10° S 01:55:02 25° SE 01:59:07 10° ENE
Cosmos 1842 Rocket 3.7 01:50:59 10° N 01:55:28 83° E 02:00:03 10° S
Meteor 2-2 Rocket 4.5 01:50:18 10° NNW 01:56:08 55° W 02:02:06 10° S
CZ-4B R/B 3.7 01:54:17 10° NNW 01:57:29 26° W 02:00:38 10° SW
COSMO-SKYMED 1 2.6 02:01:32 10° S 02:05:53 62° WSW 02:10:11 10° NNW
Radarsat Rocket 4.1 02:03:21 10° N 02:09:04 59° WNW 02:15:01 10° SSW
H-2A R/B 2.9 02:05:20 10° NNW 02:10:03 32° W 02:14:44 10° SW
CZ-2C R/B 3.6 02:08:30 10° SSW 02:12:42 24° WSW 02:16:48 10° WNW
Cosmos 2285 Rocket 4.2 02:07:59 10° SSW 02:14:10 57° WNW 02:20:21 10° N
Cosmos 1741 Rocket 4.2 02:12:11 10° NNW 02:17:22 52° WSW 02:22:38 10° S
BREEZE-M DEB (TANK) 3.7 02:14:40 10° SW 02:29:25 83° NW 02:33:10 10° NE
